Estación Meteorológica Peña el Pijo (Robertgarden) [ 07/23/19 01:12:30 CEST ]

Fecha Hora Presion(HPa) Temp (°C) Humedad % Rocio (°C) Viento ( m/s) Direccion Lluvia 1Hora(mm) Lluvia 24H(mm) LLuvia Total(mm)
2019-Jul-06 01:08:44 1011.900 - - - - NNW     342.62
2019-Jul-06 02:09:17 1011.800 - - - - NNW     342.62
2019-Jul-06 03:10:27 1011.500 - - - - NNW     342.62
2019-Jul-06 04:10:32 1011.000 - - - - NNW     342.62
2019-Jul-06 05:12:04 1010.300 - - - - NNW     342.62
2019-Jul-06 06:09:17 1010.000 - - - - NNW     342.62
2019-Jul-06 07:08:57 1010.400 - - - - NNW     342.62
2019-Jul-06 08:09:21 1010.300 - - - - NNW     342.62
2019-Jul-06 09:09:09 1010.000 - - - - NNW     342.62
2019-Jul-06 10:09:20 1009.600 - - - - NNW     342.62
2019-Jul-06 11:09:29 1009.600 - - - - NNW     342.62
2019-Jul-06 12:09:17 1009.500 - - - - NNW     342.62
2019-Jul-06 13:09:06 1009.200 - - - - NNW     342.62
2019-Jul-06 14:09:25 1009.100 - - - - NNW     342.62
2019-Jul-06 15:39:10 1009.700 - - - - NNW     342.62
2019-Jul-06 16:08:50 1009.600 - - - - NNW     342.62
2019-Jul-06 17:08:53 1009.400 - - - - NNW     342.62
2019-Jul-06 18:08:56 1008.900 - - - - NNW     342.62
2019-Jul-06 19:09:12 1008.400 - - - - NNW     342.62
2019-Jul-06 20:09:03 1008.100 - - - - NNW     342.62
2019-Jul-06 21:09:22 1008.700 - - - - NNW     342.62
2019-Jul-06 22:09:08 1009.400 - - - - NNW     342.62
2019-Jul-06 23:09:31 1009.800 - - - - NNW     342.62

Temperatura Máxima:    Temperatura Mínima:
Presión Máxima:1011.900 Hpa    Presión Mínima:1008.100 Hpa


Volver